Regional Weather Roundup
Issued by NWS

Home | Current Version | Previous Version | Graphics & Text | Print | Product List | Glossary On
Versions: 1 2 3 4 5 6 7 8 9 10 11 12 13 14 15 16 17 18 19 20 21 22 23 24 25 26 27 28 29 30 31 32 33 34 35 36 37 38 39 40 41 42 43 44 45 46 47 48 49 50
000
ASUS43 KFSD 011502
RWRSD

WEATHER ROUNDUP FOR SOUTH DAKOTA
NATIONAL WEATHER SERVICE SIOUX FALLS SD
1000 AM CDT SAT AUG 01 2015

NOTE: "FAIR" INDICATES FEW OR NO CLOUDS BELOW 12,000 FEET WITH NO
SIGNIFICANT WEATHER AND/OR OBSTRUCTIONS TO VISIBILITY.


SDZ001>005-009-010-012>017-011600-
NORTHWEST AND NORTH CENTRAL SOUTH DAKOTA

CITY           SKY/WX    TMP DP  RH WIND       PRES   REMARKS
BUFFALO          N/A     84  48  28 W10       29.93S
FAITH            N/A     81  57  43 SW14      29.95S
MOBRIDGE       SUNNY     77  65  66 SE10      29.90F
$$

SDZ012>016-024>037-041>051-057-063-072>074-011600-
SOUTHWEST AND SOUTH CENTRAL SOUTH DAKOTA

CITY           SKY/WX    TMP DP  RH WIND       PRES   REMARKS
RAPID CTY ARPT SUNNY     79  59  50 SW9       30.03R
PIERRE         SUNNY     80  61  52 S8        29.92S
CUSTER         SUNNY     76  51  41 W3        30.18S
ELLSWORTH AFB  SUNNY     78  56  46 VRB1      30.02R
PHILIP         MOSUNNY   78  63  59 S16G25    29.94F
PINE RIDGE     SUNNY     75  58  55 SE13G21   30.06F
WINNER         FAIR      75  54  47 SW16      29.98S
$$

SDZ004>011-016>023-039-040-011600-
NORTHEAST SOUTH DAKOTA

CITY           SKY/WX    TMP DP  RH WIND       PRES   REMARKS
ABERDEEN       SUNNY     75  63  66 SE7       29.93F
WATERTOWN      MOSUNNY   75  65  70 SE7       29.99S
BROOKINGS      MOSUNNY   73  64  73 S5        30.02F
SISSETON         N/A     73  59  61 S7        29.96S
$$

SDZ017-020-022-023-036>040-048>070-011600-
SOUTHEAST SOUTH DAKOTA

CITY           SKY/WX    TMP DP  RH WIND       PRES   REMARKS
SIOUX FALLS    PTSUNNY   76  67  73 SW6       30.01F
HURON          MOSUNNY   75  67  76 S12       29.95F
MITCHELL       CLOUDY    76  66  71 S14G21    29.99S
YANKTON        CLOUDY    73  66  78 SW10      30.01S
$$

ABBREVIATIONS USED IN REMARKS
   TC - TEMPERATURE IN CELSIUS
  WCI - WIND CHILL INDEX
   HX - HEAT INDEX
  VSB - VISIBILITY



USA.gov is the U.S. government's official web portal to all federal, state and local government web resources and services.